php hit counter
OOO

Jackpot

Texas Poker Multi Jackpot System

Kini Telah hadir Jackpot SUPER ROYAL FLUSH

Kini Telah hadir Jackpot 2000 (khusus table VIP keatas).

Ikutilah global jackpot yang tersedia di system kami, dengan system jackpot terbaru dan pertama di indonesia, anda dapat membeli jackpot dengan harga 100 rupiah saja dan menangkan hadiahnya hingga puluhan juta rupiah.

Jackpot bukanlah suatu keharusan untuk dibeli, namun kami memberikan suatu fitur tambahan untuk member tercinta dari www.windewaq.com.

Terdapat tiga pilihan harga jackpot yang bisa anda beli yaitu :100,500,1000 dan 2000(khusus table VIP Keatas) rupiah.

Hadiah dari Multi jackpot system www.windewaq.com

  1. full house x 10 harga jackpot yang anda beli.
      (contoh:anda membeli 1000 maka:1000 X10 = 10.000)
  2. four of kind x 250 harga jackpot yang anda beli
      (contoh:anda membeli 1000 maka:1000 X250 = 250.000)
  3. Straight flush x 1200
      (contoh:anda membeli 1000 maka:1000 X1200 = 1.200.000)
  4. Royal flush x 10000 harga jackpot yang anda beli
      (contoh:anda membeli 1000 maka:1000 X10000 = 10.000.000)
  5. SUPER ROYAL FLUSH x 30000 harga jackpot yang anda beli
      (contoh:anda membeli 1000 maka:1000 X30000 = 30.000.000)

Kondisi kartu

  1. full house adalah kondisi kartu dimana kartu anda dan kartu tengah dengan total 7 kartu bisa mendapatkan nilai 5 kartu dengan kombinasi 1 tris(three of kind) dan 1 pair, contoh 3 kartu 10 dan 2 kartu 5
  2. Four of kind adalah kondisi kartu dimana kartu anda dan kartu tengah dengan total 7 kartu bisa mendapatkan nilai 5 kartu dengan kombinasi 4 kartu yang sama jumlah dan 1 kartu apapun juga contoh anda mendapatkan 4 buah kartu angka 3 dan 1 kartu apapun.
  3. Staright flush adalah kondisi kartu dimana kartu anda dan kartu tengah dengan total 7 kartu bisa mendapatkan nilai 5 kartu dengan kombinasi seri / staright dengan kembang yang sama contoh : urutan kartu dari angka 5, 6, 7, 8 , 9 10 dengan kembang yg sama misalnya as hati
  4. Royal flush adalah kondisi kartu dimana kartu anda dan kartu tengah dengan total 7 kartu bisa mendapatkan nilai 5 kartu dengan kombinasi seri / staright dengan kembang yang sama tetapi kartu tersebut haruslah dimulai dari 10. contoh 10, Queen, Jack, King dan aces dengan kembang yang sama
  5. Super Royal flush adalah kondisi kartu dimana Kedua kartu anda digabung dengan 3 kartu pertama meja haruslah royal flush. contoh kartu anda 10,Queen kembang sama dan 3 kartu pertama meja adalah Jack, King dan aces dengan kembang yang sama

Demikian adalah penjelasan dari Multi Jackpot www.windewaq.com terima kasih dan selamat bermain salam hoki dari kami

Texas Poker Jackpot Winner

TOP SUPER ROYAL FLUSH
No.TanggalNamaPriceWin
119/06 22:51XK4MI2Super Royal flush3,000,000
219/06 22:24WINNER888Super Royal flush15,000,000
319/06 22:05F8A6BAF1Super Royal flush6,000,000
419/06 19:56ONANI026Super Royal flush6,000,000
519/06 19:21TUDDINSuper Royal flush6,000,000
TOP ROYAL FLUSH
No.TanggalNamaPriceWin
120/06 00:59DWBTOKON52Royal flush10,000,000
220/06 00:49RADWEDWETRoyal flush5,000,000
320/06 00:48NAONATH12Royal flush1,000,000
420/06 00:46MASALAHLOHRoyal flush10,000,000
520/06 00:45AMSYONG888Royal flush5,000,000
TOP STRAIGHT FLUSH
No.TanggalNamaPriceWin
120/06 00:58MCR06Straight Flush120,000
220/06 00:57AA_4GUNGStraight Flush240,000
320/06 00:56BENOT268Straight Flush240,000
420/06 00:54LONTE504Straight Flush120,000
520/06 00:53BULLOK77Straight Flush60,000
LATEST JACKPOT
No.TanggalNamaPriceWin
120/06 01:03JIASENFull House20,000
220/06 01:03DYN69Four Of A Kind250,000
320/06 01:03PAU00Full House2,000
420/06 01:03GREZIZEXFull House5,000
520/06 01:03BOENG11Full House2,000
620/06 01:03EMAK99Full House2,000
720/06 01:03JHYWAWANFull House1,000
820/06 01:03T1ZRMMW3DOFull House1,000
920/06 01:03YOGAASAFull House10,000
1020/06 01:03GAHAR86Full House2,000
1120/06 01:03JFECN71641Full House5,000
1220/06 01:03AYRAPRO07Full House5,000
1320/06 01:03MACAN1890Four Of A Kind250,000
1420/06 01:03TLKTLJK51JFull House2,000
1520/06 01:03T3735Full House20,000
1620/06 01:03D371SAFull House2,000
1720/06 01:03TUTOBARON66Full House5,000
1820/06 01:03AIUGAME9Full House2,000
1920/06 01:03TEMPURA_99Four Of A Kind50,000
2020/06 01:03MANGAT90Full House500
2120/06 01:03BENOJAIS10Full House1,000
2220/06 01:03SHEZAN20Full House5,000
2320/06 01:03BENOT268Full House1,000
2420/06 01:03RHENA67Full House2,000
2520/06 01:03SIIRENGFull House2,000
2620/06 01:03AMAS999Full House5,000
2720/06 01:03GEMBIRAH_Full House2,000
2820/06 01:03TAOFIK888Full House2,000
2920/06 01:03SINYO6Full House1,000
3020/06 01:03JOKERFLSFull House2,000
3120/06 01:03UMRKUEGD9SFull House20,000
3220/06 01:03GARANK01Full House10,000
3320/06 01:03MFF15Full House1,000
3420/06 01:03PAK_OMATFull House5,000
3520/06 01:03KIKUK076Full House2,000
3620/06 01:03JON_87Full House2,000
3720/06 01:03AFINA0101Full House2,000
3820/06 01:03W61UEPFQ6DFull House2,000
3920/06 01:03WULU88Full House10,000
4020/06 01:03PAIIRRRACEFull House10,000
4120/06 01:03E877661EFull House500
4220/06 01:03ID99999999Full House2,000
4320/06 01:03UY67W8AO41Full House2,000
4420/06 01:03DCBCFDDEFull House5,000
4520/06 01:03N6ADEM99Full House10,000
4620/06 01:03MUSAMAHFull House10,000
4720/06 01:03MASTER1413Full House5,000
4820/06 01:03AF0D2A35Full House5,000
4920/06 01:03FURI1203Full House5,000
5020/06 01:03LFEFull House2,000

Domino Multi Jackpot System

Ikutilah global jackpot yang tersedia di system kami, dengan system jackpot terbaru dan pertama di indonesia, anda dapat membeli jackpot dengan harga 100 rupiah saja dan menangkan hadiahnya hingga puluhan juta rupiah.

Jackpot bukanlah suatu keharusan untuk dibeli, namun kami memberikan suatu fitur tambahan untuk member tercinta dari www.windewaq.com.

Terdapat tiga pilihan harga jackpot yang bisa anda beli yaitu :100,500 dan 1000 rupiah.

Hadiah dari Multi jackpot system www.windewaq.com

  1. Murni Kecil x 50 harga jackpot yang anda beli.
      (contoh:anda membeli 1000 maka:1000 X 50 = 50.000)
  2. Murni Besar x 50 harga jackpot yang anda beli
      (contoh:anda membeli 1000 maka:1000 X 50 = 50.000)
  3. BALAK x 100 harga jackpot yang anda beli
      (contoh:anda membeli 1000 maka:1000 X 100 = 100.000)
  4. ENAM DEWA x 6666 harga jackpot yang anda beli
      (contoh:anda membeli 1000 maka:1000 X 6666 = 6.666.000)

Demikian adalah penjelasan dari Multi Jackpot www.windewaq.com terima kasih dan selamat bermain salam hoki dari kami

Domino Jackpot Winner

TOP ENAM DEWA
No.TanggalNamaPriceWin
120/06 00:15EVRIT01murni enam3,333,000
219/06 23:47SOLONG85murni enam3,333,000
319/06 22:17MF92murni enam666,600
419/06 22:07SEHAH66murni enam3,333,000
519/06 15:29JEEG99murni enam666,600
TOP BALAK
No.TanggalNamaPriceWin
120/06 01:01ARFIN99balak100,000
220/06 00:59NAYUL99balak10,000
320/06 00:59G1880REbalak10,000
420/06 00:58T4DJANOKO22balak100,000
520/06 00:57ACB97389balak100,000
LATEST JACKPOT
No.TanggalNamaPriceWin
120/06 01:02ELORAmurni kecil50,000
220/06 01:02NENGEWOSmurni besar50,000
320/06 01:02PAWON89murni besar25,000
420/06 01:02BG126GAmurni kecil25,000
520/06 01:01ARFIN99balak100,000
620/06 01:00GBLUESmurni kecil50,000
720/06 00:59ZENZI073murni besar25,000
820/06 00:59NAYUL99balak10,000
920/06 00:59ASIARIZKI9murni kecil25,000
1020/06 00:59G1880REbalak10,000
1120/06 00:58RIZKYP90murni besar5,000
1220/06 00:58AGRAFANAmurni besar5,000
1320/06 00:58T4DJANOKO22balak100,000
1420/06 00:58NIMEN456murni kecil25,000
1520/06 00:57ACB97389balak100,000
1620/06 00:57Y5WP1BO936murni kecil50,000
1720/06 00:56B471Kmurni besar50,000
1820/06 00:56GAPUR83murni besar50,000
1920/06 00:56BG126GAmurni besar25,000
2020/06 00:55ONCOL20murni besar25,000
2120/06 00:54MIXTAPE7balak50,000
2220/06 00:53NENGEWOSmurni besar50,000
2320/06 00:53ONCOL20murni besar25,000
2420/06 00:53TOKE378balak100,000
2520/06 00:52PUTRAPANDUmurni besar25,000
2620/06 00:52B3L4ND4_98murni kecil25,000
2720/06 00:51HANDY_14balak50,000
2820/06 00:51YESPORNbalak10,000
2920/06 00:50AYYOEB95murni kecil5,000
3020/06 00:50IMEL16Bmurni besar5,000
3120/06 00:50BA2IJOmurni kecil25,000
3220/06 00:50MAKYET100balak10,000
3320/06 00:49TOKE378murni kecil50,000
3420/06 00:49MANJUR66murni kecil50,000
3520/06 00:49JAMBU234murni kecil50,000
3620/06 00:49GAPUR83murni kecil50,000
3720/06 00:49PP000murni besar50,000
3820/06 00:49TACIK29balak100,000
3920/06 00:48IKRAMJRRmurni kecil50,000
4020/06 00:47LHANGIETmurni besar50,000
4120/06 00:47AD0904F2murni besar5,000
4220/06 00:46PURO_32murni besar25,000
4320/06 00:46MUMU10001murni kecil5,000
4420/06 00:46INODEmurni besar25,000
4520/06 00:46DWBTHEII11murni besar5,000
4620/06 00:45GIOFIRMANmurni besar25,000
4720/06 00:44T4DTOFAbalak10,000
4820/06 00:43IV4ND312balak100,000
4920/06 00:43AGUSUJ4NGmurni kecil25,000
5020/06 00:42KLX370murni kecil5,000

Ceme Multi Jackpot System

Jackpot dilihat dari gabungan kartu pemain dengan kartu bandar. Bandar harus membeli jackpot sebanyak jumlah player yang sedang duduk. Sebagai contoh bila terdapat 3 pemain duduk bermain, dan bandar memutuskan untuk membeli jackpot Rp 1.000, maka pada periode tersebut bandar akan membeli jackpot sebanyak 3xRp1.000 = Rp3.000.

Jackpot bukanlah suatu keharusan untuk dibeli, namun kami memberikan suatu fitur tambahan untuk member tercinta dari www.windewaq.com.

Terdapat tiga pilihan harga jackpot yang bisa anda beli yaitu :100,500 dan 1000 rupiah.

Hadiah dari Multi jackpot system www.windewaq.com

  1. Murni Kecil x 50 harga jackpot yang anda beli.
      (contoh:anda membeli 1000 maka:1000 X 50 = 50.000)
  2. Murni Besar x 50 harga jackpot yang anda beli
      (contoh:anda membeli 1000 maka:1000 X 50 = 50.000)
  3. BALAK x 200 harga jackpot yang anda beli
      (contoh:anda membeli 1000 maka:1000 X 200 = 200.000)
  4. ENAM DEWA x 6666 harga jackpot yang anda beli
      (contoh:anda membeli 1000 maka:1000 X 6666 = 6.666.000)

Demikian adalah penjelasan dari Multi Jackpot www.windewaq.com terima kasih dan selamat bermain salam hoki dari kami

Ceme Jackpot Winner

TOP ENAM DEWA
No.TanggalNamaPriceWin
120/06 00:45KUPU2211murni enam3,333,000
220/06 00:45GEBE89murni enam3,333,000
320/06 00:18MERCOOONmurni enam6,666,000
420/06 00:11ZZIIIEEEmurni enam3,333,000
520/06 00:11IDNPRO120murni enam666,600
TOP BALAK
No.TanggalNamaPriceWin
120/06 01:03NIKEN23balak200,000
220/06 01:03ELISA15balak200,000
320/06 01:02CODYKEY939balak100,000
420/06 01:02CUM11balak200,000
520/06 01:02ODE44balak200,000
LATEST JACKPOT
No.TanggalNamaPriceWin
120/06 01:03MOT0229murni kecil5,000
220/06 01:03NIKEN23balak200,000
320/06 01:03ELISA15balak200,000
420/06 01:03GOWIN3333murni besar5,000
520/06 01:03H0K1BTC013murni besar25,000
620/06 01:03BRIBRI5858murni kecil5,000
720/06 01:03MEMEKE003murni kecil5,000
820/06 01:03BIRAWANAmurni besar50,000
920/06 01:03HK_5888murni kecil50,000
1020/06 01:03HK_5888murni kecil50,000
1120/06 01:03GODEL098murni kecil50,000
1220/06 01:0320JENGPATRmurni kecil5,000
1320/06 01:03F7BFFE04murni kecil50,000
1420/06 01:03F7BFFE04murni kecil50,000
1520/06 01:02CODYKEY939balak100,000
1620/06 01:02ANOKHERZ71murni kecil50,000
1720/06 01:02NECROLYTEmurni kecil50,000
1820/06 01:02CUM11balak200,000
1920/06 01:02ODE44balak200,000
2020/06 01:02ADITXmurni besar50,000
2120/06 01:02OCDMWBP67Tmurni besar50,000
2220/06 01:02PUTRA9195murni kecil5,000
2320/06 01:02SUHOYObalak200,000
2420/06 01:02AAK0112murni kecil5,000
2520/06 01:0217TOBINKmurni kecil50,000
2620/06 01:02ANOKHERZ71balak200,000
2720/06 01:02BUCAT19murni besar25,000
2820/06 01:02YOKOB9099murni besar50,000
2920/06 01:02ABIM4NYU08murni besar50,000
3020/06 01:01HEPI24murni kecil5,000
3120/06 01:01VIRLYOCKTAmurni besar50,000
3220/06 01:01A68ANG8206991murni kecil50,000
3320/06 01:01NINIBULANGbalak200,000
3420/06 01:01NINIBULANGmurni kecil50,000
3520/06 01:01DOLAR30XXXmurni kecil50,000
3620/06 01:01IMAM2108murni kecil5,000
3720/06 01:01REFAN_40balak200,000
3820/06 01:01REFAN_40murni besar50,000
3920/06 01:01UPESCXSFNSmurni besar50,000
4020/06 01:01JASNAWITA8murni besar50,000
4120/06 01:01DONGDOT991murni besar50,000
4220/06 01:01EXCOBAR44balak20,000
4320/06 01:00LESLEY18murni kecil50,000
4420/06 01:00TOOMO19murni kecil25,000
4520/06 01:00NEKAD9999murni kecil50,000
4620/06 01:00GLOSORANmurni kecil50,000
4720/06 01:00MRX2321murni kecil25,000
4820/06 01:00IZ503097balak200,000
4920/06 01:00XMOXIbalak20,000
5020/06 01:00BASAR76murni besar50,000